TimeCST,TemperatureF,Dew PointF,Humidity,Sea Level PressureIn,VisibilityMPH,Wind Direction,Wind SpeedMPH,Gust SpeedMPH,PrecipitationIn,Events,Conditions,WindDirDegrees,DateUTC
12:15 AM,21.2,19.4,93,29.84,10.0,SSE,13.8,-,N/A,,Clear,150,2013-01-10 06:15:00
12:35 AM,21.2,19.4,93,29.83,10.0,SSE,11.5,-,N/A,,Clear,160,2013-01-10 06:35:00
12:55 AM,23.0,21.2,93,29.82,10.0,SSE,12.7,-,N/A,,Clear,150,2013-01-10 06:55:00
2:15 AM,24.8,23.0,93,29.80,10.0,SE,10.4,-,N/A,,Clear,140,2013-01-10 08:15:00
2:35 AM,24.8,23.0,93,29.79,10.0,SE,9.2,-,N/A,,Clear,140,2013-01-10 08:35:00
2:55 AM,24.8,24.8,100,29.77,10.0,SE,12.7,-,N/A,,Partly Cloudy,140,2013-01-10 08:55:00
3:15 AM,26.6,24.8,93,29.76,10.0,SE,13.8,-,N/A,,Clear,140,2013-01-10 09:15:00
3:35 AM,26.6,24.8,93,29.75,10.0,SSE,12.7,-,N/A,,Clear,150,2013-01-10 09:35:00
3:55 AM,26.6,24.8,93,29.74,10.0,SE,9.2,-,N/A,,Clear,140,2013-01-10 09:55:00
4:15 AM,24.8,24.8,100,29.72,10.0,SE,9.2,-,N/A,,Clear,140,2013-01-10 10:15:00
4:35 AM,24.8,23.0,93,29.71,10.0,SE,11.5,-,N/A,,Clear,140,2013-01-10 10:35:00
4:55 AM,24.8,23.0,93,29.70,10.0,SE,12.7,-,N/A,,Clear,140,2013-01-10 10:55:00
5:15 AM,23.0,23.0,100,29.69,10.0,SSE,11.5,-,N/A,,Clear,150,2013-01-10 11:15:00
5:35 AM,21.2,21.2,100,29.69,10.0,SSE,9.2,-,N/A,,Clear,150,2013-01-10 11:35:00
5:55 AM,21.2,21.2,100,29.67,10.0,SSE,11.5,-,N/A,,Clear,150,2013-01-10 11:55:00
6:15 AM,23.0,21.2,93,29.67,10.0,SSE,9.2,-,N/A,,Clear,150,2013-01-10 12:15:00
6:35 AM,23.0,21.2,93,29.65,10.0,SSE,11.5,-,N/A,,Clear,150,2013-01-10 12:35:00
6:55 AM,23.0,23.0,100,29.64,10.0,SSE,11.5,-,N/A,,Clear,160,2013-01-10 12:55:00
7:15 AM,24.8,24.8,100,29.65,10.0,South,11.5,-,N/A,,Clear,170,2013-01-10 13:15:00
7:35 AM,24.8,24.8,100,29.64,10.0,SSE,10.4,-,N/A,,Clear,160,2013-01-10 13:35:00
7:55 AM,24.8,24.8,100,29.63,10.0,SSE,11.5,-,N/A,,Clear,160,2013-01-10 13:55:00
8:15 AM,24.8,23.0,93,29.64,10.0,South,6.9,-,N/A,,Clear,170,2013-01-10 14:15:00
8:35 AM,24.8,24.8,100,29.63,10.0,South,8.1,-,N/A,,Clear,180,2013-01-10 14:35:00
8:55 AM,24.8,24.8,100,29.63,10.0,SSE,4.6,-,N/A,,Clear,160,2013-01-10 14:55:00
9:15 AM,24.8,24.8,100,29.63,10.0,SSE,8.1,-,N/A,,Clear,160,2013-01-10 15:15:00
9:35 AM,24.8,24.8,100,29.62,10.0,SSE,8.1,-,N/A,,Clear,160,2013-01-10 15:35:00
9:55 AM,26.6,24.8,93,29.62,10.0,South,9.2,-,N/A,,Clear,170,2013-01-10 15:55:00
10:35 AM,30.2,28.4,93,29.62,10.0,South,13.8,-,N/A,,Clear,190,2013-01-10 16:35:00
10:55 AM,32.0,28.4,87,29.63,10.0,South,12.7,-,N/A,,Clear,190,2013-01-10 16:55:00
11:15 AM,32.0,28.4,87,29.63,10.0,South,12.7,-,N/A,,Clear,190,2013-01-10 17:15:00
11:35 AM,32.0,30.2,93,29.62,10.0,South,16.1,-,N/A,,Clear,190,2013-01-10 17:35:00
11:55 AM,33.8,30.2,87,29.62,10.0,SSW,15.0,-,N/A,,Clear,200,2013-01-10 17:55:00
12:15 PM,33.8,30.2,87,29.60,10.0,SSW,11.5,-,N/A,,Clear,200,2013-01-10 18:15:00
12:35 PM,33.8,30.2,87,29.60,10.0,SSW,11.5,-,N/A,,Clear,200,2013-01-10 18:35:00
12:55 PM,33.8,30.2,87,29.59,10.0,SSW,9.2,-,N/A,,Clear,200,2013-01-10 18:55:00
1:15 PM,33.8,30.2,87,29.58,10.0,South,10.4,-,N/A,,Clear,180,2013-01-10 19:15:00
1:35 PM,33.8,32.0,93,29.58,10.0,South,6.9,-,N/A,,Clear,180,2013-01-10 19:35:00
1:55 PM,33.8,30.2,87,29.57,10.0,South,9.2,-,N/A,,Clear,180,2013-01-10 19:55:00
2:15 PM,33.8,30.2,87,29.57,10.0,South,9.2,-,N/A,,Clear,180,2013-01-10 20:15:00
2:35 PM,32.0,30.2,93,29.57,10.0,South,11.5,-,N/A,,Clear,170,2013-01-10 20:35:00
2:55 PM,32.0,30.2,93,29.57,10.0,SSE,9.2,-,N/A,,Clear,160,2013-01-10 20:55:00
3:15 PM,32.0,30.2,93,29.57,10.0,South,9.2,-,N/A,,Clear,170,2013-01-10 21:15:00
3:35 PM,32.0,30.2,93,29.57,10.0,SSE,10.4,-,N/A,,Clear,160,2013-01-10 21:35:00
3:55 PM,33.8,30.2,87,29.56,10.0,SSE,9.2,-,N/A,,Clear,150,2013-01-10 21:55:00
4:15 PM,32.0,28.4,87,29.57,10.0,SE,6.9,-,N/A,,Clear,130,2013-01-10 22:15:00
4:35 PM,32.0,28.4,87,29.57,10.0,ESE,6.9,-,N/A,,Clear,120,2013-01-10 22:35:00
4:55 PM,32.0,28.4,87,29.57,10.0,SE,9.2,-,N/A,,Clear,140,2013-01-10 22:55:00
5:15 PM,30.2,28.4,93,29.57,10.0,ESE,6.9,-,N/A,,Clear,110,2013-01-10 23:15:00
5:35 PM,32.0,28.4,87,29.58,10.0,NE,4.6,-,N/A,,Clear,40,2013-01-10 23:35:00
5:55 PM,28.4,26.6,93,29.57,10.0,NNE,9.2,-,N/A,,Clear,30,2013-01-10 23:55:00
6:15 PM,30.2,28.4,93,29.57,10.0,ENE,5.8,-,N/A,,Clear,60,2013-01-11 00:15:00
6:35 PM,26.6,26.6,100,29.57,10.0,North,11.5,-,N/A,,Clear,360,2013-01-11 00:35:00
6:55 PM,28.4,26.6,93,29.57,10.0,North,8.1,-,N/A,,Clear,10,2013-01-11 00:55:00
7:15 PM,26.6,26.6,100,29.57,10.0,North,13.8,-,N/A,,Clear,10,2013-01-11 01:15:00
7:35 PM,24.8,24.8,100,29.56,10.0,NNE,12.7,-,N/A,,Clear,30,2013-01-11 01:35:00
7:55 PM,24.8,24.8,100,29.55,10.0,NNE,13.8,-,N/A,,Clear,20,2013-01-11 01:55:00
8:15 PM,24.8,23.0,93,29.54,10.0,NNE,15.0,-,N/A,,Clear,30,2013-01-11 02:15:00
8:35 PM,23.0,23.0,100,29.54,10.0,NNE,16.1,-,N/A,,Clear,30,2013-01-11 02:35:00
9:15 PM,23.0,23.0,100,29.54,10.0,NE,17.3,-,N/A,,Mostly Cloudy,50,2013-01-11 03:15:00
9:35 PM,23.0,23.0,100,29.54,10.0,NE,16.1,21.9,N/A,,Mostly Cloudy,40,2013-01-11 03:35:00
9:55 PM,23.0,23.0,100,29.54,10.0,NE,15.0,23.0,N/A,,Overcast,40,2013-01-11 03:55:00
10:15 PM,24.8,23.0,93,29.54,10.0,NE,16.1,-,N/A,,Overcast,50,2013-01-11 04:15:00
10:35 PM,24.8,24.8,100,29.54,10.0,NE,16.1,-,N/A,,Overcast,40,2013-01-11 04:35:00
10:55 PM,24.8,24.8,100,29.55,10.0,NE,16.1,-,N/A,,Overcast,40,2013-01-11 04:55:00
11:15 PM,24.8,24.8,100,29.55,8.0,NE,18.4,23.0,N/A,,Overcast,40,2013-01-11 05:15:00
11:35 PM,24.8,23.0,93,29.55,9.0,NNE,20.7,24.2,N/A,,Overcast,30,2013-01-11 05:35:00
11:55 PM,21.2,19.4,93,29.56,5.0,NNE,26.5,33.4,N/A,,Overcast,20,2013-01-11 05:55:00